Location: Newark
(7.0858°N, 171.3717°E)
Time: 06:07:58
(UTC+00:00)

Courier 1B Rocket - Pass Details

Date: 27 November 2020
Orbit: 920 x 1202 km, 28.2° (Epoch: 20 January)

Event Time Altitude Azimuth Distance (km) Brightness Sun altitude
Rises 16:15:41 0° 251° (WSW) 4,015 - -32.0°
Reaches altitude 10° 16:18:31 10° 254° (WSW) 3,080 - -31.4°
Maximum altitude 16:26:06 59° 333° (NNW) 1,360 - -29.6°
Exits shadow 16:26:27 58° 344° (NNW) 1,366 5.4 -29.5°
Drops below altitude 10° 16:33:47 10° 51° (NE) 3,118 8.0 -27.8°
Sets 16:36:41 0° 55° (NE) 4,067 8.7 -27.1°
